WHITEHORSE, YK current weather conditions

sailwx.info

Wind at 5 knots

Air temperature -5.0° C
Visibility: greater than 8.7 NM
Dewpoint -6.0° C

Last reported at 2014-Nov-23 23:00 UTC.
Time now 2014-Nov-24 01:29 UTC

Location: N 60°43' W 135°04'.
View on Google Maps.

See reports from other nearby stations

  
Tides and Currents Weather Stations Pressure Air Temp Water Temp Dewpoint Dewpoint Depression Visibility Wind Speed Wind Dir Waves Ship Positions
date/time (UTC)wind fromknots sea level pressurealtimeterstation pressurevisibilityair tempwater tempwave heightnotes
2014-Nov-24 00:00 180 6 8.7-5.0
2014-Nov-23 23:00 8.7-5.0
2014-Nov-23 22:00 160 6 6.9-5.0
2014-Nov-23 21:32 190 7 7.0-5.0
2014-Nov-23 21:00 170 6 6.9-5.0
2014-Nov-23 20:00 8.7-6.0
2014-Nov-23 19:00 8.7-6.0
2014-Nov-23 18:00 13.0-6.0
2014-Nov-23 17:00 160 5 13.0-7.0
2014-Nov-23 16:00 6.9-6.0
2014-Nov-23 15:00 6.9-6.0
2014-Nov-23 14:00 6.9-6.0
2014-Nov-23 13:00 7.0-6.0
2014-Nov-23 12:00 170 5 7.0-6.0
2014-Nov-23 11:00 180 6 6.9-5.0
2014-Nov-23 10:00 170 6 6.9-6.0
2014-Nov-23 09:35 150 5 7.0-5.0
2014-Nov-23 09:00 6.9-5.0
2014-Nov-23 08:00 190 2 6.9-6.0
2014-Nov-23 07:00 160 2 6.9-6.0
2014-Nov-23 06:51 150 2 6.9-6.0
2014-Nov-23 06:00 6.9-6.0
2014-Nov-23 05:00 7.0-6.0
2014-Nov-23 04:00 360 5 6.9-6.0
2014-Nov-23 03:00 010 4 7.0-6.0
2014-Nov-23 02:00 6.9-5.0
2014-Nov-23 01:45 6.9-4.0
2014-Nov-23 01:00 13.0-6.0
2014-Nov-23 00:00 10.4-6.0
2014-Nov-22 23:00 17.4-5.0
2014-Nov-22 22:00 190 7 17.4-3.0
2014-Nov-22 21:00 170 4 17.4-4.0
2014-Nov-22 20:00 180 11 17.4-4.0
2014-Nov-22 19:00 190 12 17.4-4.0
2014-Nov-22 18:00 170 13 gusting 18 17.4-4.0
2014-Nov-22 17:00 180 11 17.4-4.0
2014-Nov-22 16:00 180 11 13.0-4.0
2014-Nov-22 15:20 170 15 13.0-4.0
2014-Nov-22 15:00 190 8 gusting 15 13.0-4.0
2014-Nov-22 14:00 180 9 gusting 20 13.0-5.0
2014-Nov-22 13:00 170 11 13.0-4.0
2014-Nov-22 12:48 170 8 13.0-4.0
2014-Nov-22 12:39 190 7 13.0-5.0 Light snow.
2014-Nov-22 12:00 13.0-6.0 Light snow.
2014-Nov-22 11:00 13.0-7.0 Light snow.
2014-Nov-22 10:00 340 1 13.0-7.0 Light snow.
2014-Nov-22 09:21 010 2 13.0-6.0 Light snow.
2014-Nov-22 09:00 13.0-7.0 Light snow.
2014-Nov-22 08:29 140 4 8.7-7.0 Light snow.
2014-Nov-22 08:00 150 4 13.0-7.0
2014-Nov-22 07:00 13.0-7.0
2014-Nov-22 06:47 13.0-7.0
2014-Nov-22 06:00 340 1 13.0-7.0
2014-Nov-22 05:17 13.0-7.0
2014-Nov-22 05:00 330 3 13.0-7.0 Light snow.
2014-Nov-22 04:00 340 2 13.0-7.0 Light snow.
2014-Nov-22 03:35 340 2 13.0-7.0 Light snow.
2014-Nov-22 03:00 330 4 13.0-7.0
2014-Nov-22 02:52 340 2 13.0-7.0
2014-Nov-22 02:00 310 4 8.7-7.0
2014-Nov-22 01:31 320 3 8.7-7.0
2014-Nov-22 01:00 340 1 5.2-7.0 Light snow.